Location: Powder Track
(41.8531°N, 72.3584°W)
Time: 08:39:59
(UTC+00:00)

Altair - Pass Details

Date: 06 August 2021
Orbit: 1501 x 1682 km, 47.2° (Epoch: 19 September)

Event Time Altitude Azimuth Distance (km) Brightness Sun altitude
Exits shadow 03:54:48 35° 105° (ESE) 2,322 8.1 -29.9°
Drops below altitude 10° 04:00:49 10° 71° (ENE) 3,703 9.5 -30.2°
Sets 04:04:03 0° 64° (ENE) 4,670 10.2 -30.3°
